Regional Weather Roundup
Issued by NWS Kansas City/Pleasant Hill, MO

Home | Current Version | Previous Version | Text Only | Print | Product List | Glossary On
Versions: 1 2 3 4 5 6 7 8 9 10 11 12 13 14 15 16 17 18 19 20 21 22 23 24 25 26 27 28 29 30 31 32 33 34 35 36 37 38 39 40 41 42 43 44 45 46 47 48 49 50
000
ASUS43 KEAX 181910
RWREAX

WEATHER ROUNDUP FOR EASTERN KANSAS AND NORTHWEST MISSOURI
NATIONAL WEATHER SERVICE KANSAS CITY/PLEASANT HILL MO
200 PM CDT WED APR 18 2018

KSZ040-057-103>105-MOZ028-029-037-043-182000-
...KANSAS CITY METROPOLITAN AREA...

CITY           SKY/WX    TMP DP  RH WIND       PRES   REMARKS
K.C. INTL      CLOUDY    41  30  65 NW21G35   30.01R WCI  32
K.C. DOWNTOWN  CLOUDY    44  30  57 W17G26    30.00R
LEES SUMMIT    CLOUDY    43  32  65 W22G38    30.00R WCI  34
OLATHE - IXD   CLOUDY    47  31  53 NW26G37   30.02R
OLATHE - OJC   CLOUDY    44  30  57 NW17G33   30.01R
LAWRENCE       CLOUDY    49  32  52 W25G36    30.04R

$$

MOZ001>008-011>017-020>025-030>033-038>040-044>046-053-054-182000-
...NORTHERN AND CENTRAL MISSOURI...

CITY           SKY/WX    TMP DP  RH WIND       PRES   REMARKS
ST. JOSEPH     CLOUDY    39  32  76 NW24G33   30.02R WCI  28
MOSBY          CLOUDY    41  32  70 NW17G24   30.01R WCI  32
WARRENSBURG    CLOUDY    46  32  57 W18G24    29.99R
WHITEMAN AFB   CLOUDY    46  33  59 NW21G26   29.93R
CLINTON        CLOUDY    48  34  57 W21       29.99R
SEDALIA        CLOUDY    49  36  61 W22G28    29.96R
WARSAW         NOT AVBL
CHILLICOTHE      N/A     40  31  70 W15G29    29.97R WCI  32
KIRKSVILLE     CLOUDY    39  31  72 NW18G35   29.90R WCI  30

$$

MOZ041-047>049-056>058-063>065-088>090-097-182000-
...EASTERN AND SOUTHERN MISSOURI...

CITY           SKY/WX    TMP DP  RH WIND       PRES   REMARKS
ST. LOUIS INTL PTSUNNY   65  43  44 NW16G30   29.76R
SPIRIT OF STL  MOSUNNY   65  40  39 W22G35    29.76R
COLUMBIA       CLOUDY    53  34  48 W24G40    29.88R
JEFFERSON CITY PTSUNNY   57  35  43 W26G40    29.86R
OSAGE BEACH    SUNNY     58  36  43 W16G25    29.91R
SPRINGFIELD    MOSUNNY   59  39  47 W21G35    29.96R
BRANSON        MOSUNNY   63  37  39 W20G33    29.97R
JOPLIN         PTSUNNY   61  37  41 NW25G45   30.01R
WEST PLAINS    SUNNY     68  38  33 W23G33    29.89R

$$

IAZ060-094-KSZ022-034>040-054-083-096-NEZ052-066-093-182000-
...KANSAS...SOUTHEAST NEBRASKA AND IOWA...

CITY           SKY/WX    TMP DP  RH WIND       PRES   REMARKS
TOPEKA         CLOUDY    45  30  55 NW22G33   30.06R
MANHATTAN      CLOUDY    49  26  41 N16G31    30.11R
EMPORIA        MOSUNNY   53  30  41 NW26G41   30.06R
CHANUTE        MOSUNNY   59  31  34 NW20G31   30.04R
WICHITA        MOSUNNY   62  28  27 NW32G45   30.08R
OMAHA          FLURRIES  37  31  78 N13       30.02R WCI  29
LINCOLN        CLOUDY    42  29  59 NW26G35   30.07R WCI  32
FALLS CITY     CLOUDY    40  29  64 NW15G29   30.04R WCI  32
LAMONI         CLOUDY    35  28  75 NW17G25   29.94R WCI  25
DES MOINES     CLOUDY    34  28  79 N12       29.94R WCI  25

$$




USA.gov is the U.S. government's official web portal to all federal, state and local government web resources and services.